SWA3184 KMCO-MWCR

Flight info

Callsign SWA3184
Flight time N/A
Altitude 35000
Route FSHUN4 PLUMR DCT SHEEK Q118 FEMID Q79 MCLAW Y442 FUNDI UM335 ALVEK UM328 UCL DCT LACET L465 GCM
Aircraft B738/M-SDGIJ1LRWY/SB1

Departure

Time N/A
Airport Orlando International Airport (KMCO)

Arrival

Time 2026-05-06 19:02
Airport Owen Roberts International Airport (MWCR)
Time Latitude Longitude Altitude Speed Heading
2026-05-06 17:47 27.07323 -81.65937 30317 ft 494 kts 173°
2026-05-06 17:47 27.03984 -81.65190 30873 ft 491 kts 173°
2026-05-06 17:47 27.00569 -81.64445 31315 ft 491 kts 173°
2026-05-06 17:48 26.97209 -81.63730 31726 ft 490 kts 173°
2026-05-06 17:48 26.93843 -81.63023 32117 ft 490 kts 174°
2026-05-06 17:48 26.90458 -81.62317 32533 ft 490 kts 174°
2026-05-06 17:48 26.87084 -81.61613 32927 ft 489 kts 174°
2026-05-06 17:49 26.83707 -81.60909 33427 ft 487 kts 174°
2026-05-06 17:49 26.80368 -81.60210 33905 ft 485 kts 174°
2026-05-06 17:49 26.77041 -81.59513 34328 ft 483 kts 174°
2026-05-06 17:49 26.73732 -81.58819 34721 ft 482 kts 174°
2026-05-06 17:50 26.70398 -81.58118 35064 ft 482 kts 174°
2026-05-06 17:50 26.67093 -81.57426 35068 ft 484 kts 174°
2026-05-06 17:50 26.60471 -81.56034 35073 ft 480 kts 174°
2026-05-06 17:51 26.53824 -81.54639 35073 ft 482 kts 173°
2026-05-06 17:51 26.47214 -81.53255 35072 ft 481 kts 173°
2026-05-06 17:52 26.40606 -81.51872 35065 ft 481 kts 174°
2026-05-06 17:52 26.34747 -81.50645 35071 ft 480 kts 173°
2026-05-06 17:53 26.28382 -81.49315 35065 ft 480 kts 173°
2026-05-06 17:53 26.21765 -81.47935 35065 ft 480 kts 173°
2026-05-06 17:54 26.15165 -81.46560 35063 ft 480 kts 173°
2026-05-06 17:54 26.08789 -81.45122 35061 ft 481 kts 169°
2026-05-06 17:55 26.02289 -81.43067 35063 ft 483 kts 166°
2026-05-06 17:55 25.95830 -81.40794 35063 ft 484 kts 165°
2026-05-06 17:56 25.89386 -81.38531 35058 ft 484 kts 166°
2026-05-06 17:56 25.82908 -81.36306 35058 ft 483 kts 166°
2026-05-06 17:57 25.76454 -81.34126 35061 ft 484 kts 167°
2026-05-06 17:57 25.69985 -81.31958 35062 ft 482 kts 167°
2026-05-06 17:58 25.63479 -81.29784 35059 ft 484 kts 167°
2026-05-06 17:58 25.56946 -81.27604 35062 ft 483 kts 167°
2026-05-06 17:59 25.50479 -81.25449 35062 ft 483 kts 167°
2026-05-06 17:59 25.44214 -81.23363 35063 ft 483 kts 166°
2026-05-06 18:00 25.37765 -81.21218 35064 ft 484 kts 166°
2026-05-06 18:00 25.31290 -81.19067 35066 ft 483 kts 166°
2026-05-06 18:01 25.24788 -81.16908 35065 ft 485 kts 166°
2026-05-06 18:01 25.18292 -81.14754 35067 ft 485 kts 166°
2026-05-06 18:02 25.11795 -81.12602 35065 ft 484 kts 166°
2026-05-06 18:02 25.05272 -81.10445 35068 ft 484 kts 166°
2026-05-06 18:03 24.98793 -81.08302 35066 ft 483 kts 166°
2026-05-06 18:03 24.92313 -81.06163 35071 ft 484 kts 166°
2026-05-06 18:04 24.85827 -81.04025 35077 ft 484 kts 166°
2026-05-06 18:04 24.79356 -81.01973 35076 ft 483 kts 169°
2026-05-06 18:05 24.72679 -81.00923 35080 ft 476 kts 181°
2026-05-06 18:05 24.66053 -81.00985 35076 ft 474 kts 186°
2026-05-06 18:06 24.59413 -81.01334 35077 ft 474 kts 186°
2026-05-06 18:06 24.53007 -81.01629 35072 ft 474 kts 185°
2026-05-06 18:07 24.46327 -81.01666 35072 ft 475 kts 183°
2026-05-06 18:07 24.39666 -81.01592 35070 ft 476 kts 182°
2026-05-06 18:08 24.33003 -81.01504 35071 ft 476 kts 182°
2026-05-06 18:08 24.26325 -81.01428 35067 ft 477 kts 182°
2026-05-06 18:09 24.19619 -81.01363 35067 ft 476 kts 182°
2026-05-06 18:09 24.12937 -81.01303 35069 ft 475 kts 182°
2026-05-06 18:10 24.06319 -81.01248 35071 ft 476 kts 182°
2026-05-06 18:10 23.99621 -81.01192 35071 ft 477 kts 182°
2026-05-06 18:11 23.92816 -81.00997 35065 ft 476 kts 180°
2026-05-06 18:11 23.86099 -81.00685 35061 ft 476 kts 180°
2026-05-06 18:12 23.79410 -81.00364 35060 ft 476 kts 180°
2026-05-06 18:12 23.72754 -81.00060 35059 ft 475 kts 180°
2026-05-06 18:13 23.66089 -80.99769 35057 ft 477 kts 180°
2026-05-06 18:13 23.59386 -80.99483 35054 ft 477 kts 180°
2026-05-06 18:14 23.53126 -80.99219 35050 ft 475 kts 180°
2026-05-06 18:14 23.46468 -80.98938 35050 ft 475 kts 180°
2026-05-06 18:15 23.39797 -80.98659 35046 ft 475 kts 180°
2026-05-06 18:15 23.33128 -80.98380 35040 ft 475 kts 180°
2026-05-06 18:16 23.26436 -80.98099 35039 ft 476 kts 180°
2026-05-06 18:16 23.19755 -80.97819 35036 ft 477 kts 180°
2026-05-06 18:17 23.13075 -80.97537 35035 ft 475 kts 180°
2026-05-06 18:17 23.06649 -80.97279 35031 ft 474 kts 181°
2026-05-06 18:18 23.00053 -80.97929 35031 ft 469 kts 197°
2026-05-06 18:18 22.93810 -81.00026 35031 ft 465 kts 204°
2026-05-06 18:19 22.87705 -81.02528 35034 ft 465 kts 205°
2026-05-06 18:19 22.81630 -81.05073 35038 ft 467 kts 204°
2026-05-06 18:20 22.75476 -81.07613 35037 ft 466 kts 204°
2026-05-06 18:20 22.69369 -81.10091 35038 ft 465 kts 204°
2026-05-06 18:21 22.63273 -81.12541 35039 ft 465 kts 204°
2026-05-06 18:21 22.57185 -81.14974 35039 ft 465 kts 203°
2026-05-06 18:22 22.51071 -81.17412 35040 ft 466 kts 203°
2026-05-06 18:22 22.44930 -81.19857 35038 ft 466 kts 203°
2026-05-06 18:23 22.38771 -81.22305 35041 ft 465 kts 203°
2026-05-06 18:23 22.32654 -81.24737 35042 ft 466 kts 203°
2026-05-06 18:24 22.26473 -81.27190 35043 ft 465 kts 203°
2026-05-06 18:24 22.20356 -81.29616 35046 ft 465 kts 203°
2026-05-06 18:25 22.14200 -81.32056 35047 ft 466 kts 203°
2026-05-06 18:25 22.08081 -81.34480 35043 ft 465 kts 203°
2026-05-06 18:26 22.01806 -81.36962 35034 ft 466 kts 203°
2026-05-06 18:26 21.95516 -81.39448 35029 ft 465 kts 203°
2026-05-06 18:27 21.89271 -81.41914 35029 ft 465 kts 202°
2026-05-06 18:27 21.83048 -81.44369 35029 ft 464 kts 202°
2026-05-06 18:28 21.76913 -81.46787 35029 ft 465 kts 202°
2026-05-06 18:28 21.70765 -81.49209 35029 ft 465 kts 202°
2026-05-06 18:29 21.64759 -81.51572 35041 ft 466 kts 202°
2026-05-06 18:29 21.58456 -81.53681 35028 ft 467 kts 195°
2026-05-06 18:30 21.51806 -81.55109 35029 ft 468 kts 192°
2026-05-06 18:30 21.45035 -81.56323 35029 ft 468 kts 191°
2026-05-06 18:31 21.38367 -81.57507 35029 ft 467 kts 191°
2026-05-06 18:31 21.31838 -81.58698 35029 ft 468 kts 192°
2026-05-06 18:32 21.25118 -81.59948 35029 ft 468 kts 192°
2026-05-06 18:32 21.18641 -81.61162 35029 ft 468 kts 192°
2026-05-06 18:33 21.12362 -81.62343 35029 ft 469 kts 192°
2026-05-06 18:33 21.05778 -81.63581 35029 ft 468 kts 191°
2026-05-06 18:34 20.99172 -81.64822 35029 ft 469 kts 192°
2026-05-06 18:34 20.92668 -81.66043 35025 ft 468 kts 191°
2026-05-06 18:35 20.86231 -81.67250 35026 ft 467 kts 191°
2026-05-06 18:35 20.79700 -81.68474 35027 ft 467 kts 191°
2026-05-06 18:36 20.72983 -81.69732 35026 ft 467 kts 191°
2026-05-06 18:36 20.66158 -81.71008 35028 ft 468 kts 191°
2026-05-06 18:37 20.59549 -81.72243 35028 ft 468 kts 191°
2026-05-06 18:37 20.52960 -81.73473 35028 ft 467 kts 191°
2026-05-06 18:38 20.46365 -81.74702 35027 ft 466 kts 191°
2026-05-06 18:38 20.39636 -81.75957 35027 ft 466 kts 191°
2026-05-06 18:39 20.33033 -81.77186 35028 ft 466 kts 191°
2026-05-06 18:40 20.23056 -81.79042 35027 ft 466 kts 190°
2026-05-06 18:40 20.16384 -81.80280 35027 ft 466 kts 190°
2026-05-06 18:41 20.09770 -81.81509 35027 ft 465 kts 190°
2026-05-06 18:41 20.03215 -81.82368 35027 ft 465 kts 180°
2026-05-06 18:41 19.99886 -81.82001 35029 ft 465 kts 167°
2026-05-06 18:42 19.96765 -81.80939 35027 ft 465 kts 156°
2026-05-06 18:42 19.90826 -81.77550 35016 ft 462 kts 148°
2026-05-06 18:42 19.88035 -81.75758 34593 ft 457 kts 147°
2026-05-06 18:43 19.85107 -81.73830 33646 ft 458 kts 147°
2026-05-06 18:43 19.82288 -81.71957 32992 ft 452 kts 147°
2026-05-06 18:43 19.79514 -81.70116 32324 ft 449 kts 146°
2026-05-06 18:43 19.76626 -81.68208 31615 ft 446 kts 146°
2026-05-06 18:44 19.73915 -81.66424 30801 ft 447 kts 146°
2026-05-06 18:44 19.71089 -81.64571 29933 ft 447 kts 146°
2026-05-06 18:44 19.68241 -81.62712 29105 ft 447 kts 146°
2026-05-06 18:44 19.65582 -81.60980 28289 ft 447 kts 146°
2026-05-06 18:45 19.62716 -81.59116 27418 ft 446 kts 146°
2026-05-06 18:45 19.59962 -81.57328 26575 ft 446 kts 145°
2026-05-06 18:45 19.57211 -81.55543 25707 ft 445 kts 145°
2026-05-06 18:45 19.54466 -81.53764 24848 ft 444 kts 145°
2026-05-06 18:46 19.51731 -81.51993 23987 ft 443 kts 145°
2026-05-06 18:46 19.48930 -81.50179 23068 ft 443 kts 145°
2026-05-06 18:46 19.46259 -81.48450 22177 ft 430 kts 144°
2026-05-06 18:46 19.43661 -81.46774 21384 ft 413 kts 145°
2026-05-06 18:47 19.41139 -81.45146 20535 ft 399 kts 145°
2026-05-06 18:47 19.38604 -81.43508 19684 ft 385 kts 145°
2026-05-06 18:47 19.36288 -81.42009 18850 ft 373 kts 145°
2026-05-06 18:47 19.34024 -81.40542 18094 ft 361 kts 145°
2026-05-06 18:48 19.31908 -81.39168 17358 ft 351 kts 145°
2026-05-06 18:48 19.29781 -81.37786 16640 ft 341 kts 146°
2026-05-06 18:48 19.27815 -81.36338 15974 ft 325 kts 133°
2026-05-06 18:48 19.26482 -81.34492 15539 ft 307 kts 122°
2026-05-06 18:49 19.25034 -81.32852 14935 ft 303 kts 142°
2026-05-06 18:49 19.23106 -81.31981 14301 ft 301 kts 170°
2026-05-06 18:49 19.20997 -81.32235 13620 ft 296 kts 203°
2026-05-06 18:49 19.19344 -81.33612 12956 ft 291 kts 236°
2026-05-06 18:50 19.18655 -81.35596 12198 ft 289 kts 267°
2026-05-06 18:50 19.18797 -81.37719 11356 ft 288 kts 280°
2026-05-06 18:50 19.19136 -81.39843 10534 ft 289 kts 279°
2026-05-06 18:50 19.19348 -81.42002 9733 ft 289 kts 275°
2026-05-06 18:51 19.19491 -81.44144 8948 ft 289 kts 274°
2026-05-06 18:51 19.19631 -81.46281 8121 ft 289 kts 274°
2026-05-06 18:51 19.19633 -81.48431 7310 ft 289 kts 265°
2026-05-06 18:51 19.19289 -81.50569 6485 ft 288 kts 256°
2026-05-06 18:52 19.18777 -81.52612 5679 ft 288 kts 252°
2026-05-06 18:52 19.18187 -81.54658 4868 ft 287 kts 251°
2026-05-06 18:52 19.17592 -81.56674 4233 ft 279 kts 251°
2026-05-06 18:52 19.17017 -81.58643 3617 ft 272 kts 251°
2026-05-06 18:53 19.16473 -81.60518 3025 ft 267 kts 251°
2026-05-06 18:53 19.15932 -81.62392 2422 ft 263 kts 251°
2026-05-06 18:53 19.15394 -81.64256 1815 ft 259 kts 251°
2026-05-06 18:53 19.14862 -81.66098 1477 ft 249 kts 251°
2026-05-06 18:54 19.14357 -81.67844 1439 ft 233 kts 251°
2026-05-06 18:54 19.14142 -81.69571 1325 ft 229 kts 279°
2026-05-06 18:54 19.14923 -81.71083 1267 ft 223 kts 323°
2026-05-06 18:54 19.16288 -81.71622 1287 ft 202 kts
2026-05-06 18:55 19.17662 -81.71165 1284 ft 189 kts 43°
2026-05-06 18:55 19.18434 -81.70036 1298 ft 174 kts 70°
2026-05-06 18:55 19.18882 -81.68838 1272 ft 162 kts 70°
2026-05-06 18:55 19.19347 -81.67678 1277 ft 162 kts 69°
2026-05-06 18:56 19.19797 -81.66567 1279 ft 162 kts 70°
2026-05-06 18:56 19.20284 -81.65338 1290 ft 183 kts 70°
2026-05-06 18:56 19.20826 -81.63962 1279 ft 200 kts 69°
2026-05-06 18:56 19.21390 -81.62549 1275 ft 203 kts 70°
2026-05-06 18:57 19.22002 -81.61008 1279 ft 204 kts 69°
2026-05-06 18:57 19.22559 -81.59599 1278 ft 204 kts 70°
2026-05-06 18:57 19.23152 -81.58095 1278 ft 205 kts 70°
2026-05-06 18:57 19.23732 -81.56628 1278 ft 205 kts 69°
2026-05-06 18:58 19.24290 -81.55216 1278 ft 205 kts 69°
2026-05-06 18:58 19.24888 -81.53702 1282 ft 203 kts 69°
2026-05-06 18:58 19.25391 -81.52215 1283 ft 206 kts 75°
2026-05-06 18:58 19.25740 -81.50752 1284 ft 204 kts 78°
2026-05-06 18:59 19.26070 -81.49275 1280 ft 205 kts 78°
2026-05-06 18:59 19.26410 -81.47816 1283 ft 204 kts 77°
2026-05-06 18:59 19.26765 -81.46333 1276 ft 204 kts 77°
2026-05-06 18:59 19.27118 -81.44868 1282 ft 205 kts 78°
2026-05-06 19:00 19.27450 -81.43490 1243 ft 181 kts 77°
2026-05-06 19:00 19.27759 -81.42199 1032 ft 177 kts 77°
2026-05-06 19:00 19.28046 -81.40987 795 ft 159 kts 78°
2026-05-06 19:00 19.28297 -81.39925 660 ft 139 kts 77°
2026-05-06 19:01 19.28529 -81.38959 589 ft 137 kts 79°
2026-05-06 19:01 19.28777 -81.37959 370 ft 136 kts 78°
2026-05-06 19:01 19.29005 -81.36952 99 ft 141 kts 78°
2026-05-06 19:01 19.29232 -81.36006 12 ft 129 kts 82°
2026-05-06 19:02 19.29350 -81.35471 12 ft 50 kts 77°
2026-05-06 19:02 19.29430 -81.35123 12 ft 38 kts 74°
2026-05-06 19:02 19.29489 -81.34907 12 ft 21 kts 60°
2026-05-06 19:02 19.29574 -81.34933 12 ft 16 kts 277°
2026-05-06 19:03 19.29549 -81.35053 12 ft 17 kts 256°
2026-05-06 19:03 19.29520 -81.35171 12 ft 18 kts 255°
2026-05-06 19:03 19.29487 -81.35307 12 ft 19 kts 256°
2026-05-06 19:03 19.29453 -81.35451 12 ft 20 kts 255°
2026-05-06 19:04 19.29436 -81.35574 12 ft 10 kts 303°
2026-05-06 19:04 19.29487 -81.35599 12 ft 8 kts 347°
2026-05-06 19:04 19.29544 -81.35613 12 ft 0 kts 346°
2026-05-06 19:04 19.29548 -81.35614 12 ft 0 kts 346°